Regional Weather Roundup
Issued by NWS

Home | Current Version | Previous Version | Text Only | Print | Product List | Glossary Off
Versions: 1 2 3 4 5 6 7 8 9 10 11 12 13 14 15 16 17 18 19 20 21 22 23 24 25 26 27 28 29 30 31 32 33 34 35 36 37 38 39 40 41 42 43 44 45 46 47 48 49 50

000
ASUS45 KCYS 040510
RWRWY

WYOMING REGIONAL WEATHER ROUNDUP
NATIONAL WEATHER SERVICE CHEYENNE WY
1100 PM MDT FRI JUL 03 2015

NOTE:  "FAIR" INDICATES FEW OR NO CLOUDS BELOW 12,000 FEET
WITH NO SIGNIFICANT WEATHER AND/OR OBSTRUCTIONS TO VISIBILITY.

WYZ001-040600-
YELLOWSTONE NATIONAL PARK

CITY           SKY/WX    TMP DP  RH WIND       PRES   REMARKS
LK YELLOWSTONE   N/A     55  41  59 NW5       30.23R
W YELLOWSTONE  NOT AVBL

$$
WYZ002>013-054>058-071-098>099-040600-
NORTHERN WYOMING

CITY           SKY/WX    TMP DP  RH WIND       PRES   REMARKS
JACKSON        FAIR      66  50  55 CALM      30.09S
CODY           FAIR      72  52  49 SW5       30.00S
GREYBULL       FAIR      79  49  34 S5        29.89R
WORLAND        FAIR      70  61  73 S8        29.92R
SHERIDAN       FAIR      68  59  73 CALM      29.92S
BUFFALO        FAIR      72  55  55 S6        30.01S
GILLETTE       MOCLDY    73  58  59 S10       29.97S
HULETT         FAIR      70  55  60 S7        29.99F
NEWCASTLE      FAIR      70  52  52 SE8       30.02R

$$
WYZ014>020-022>026-101>103-040600-
CENTRAL WYOMING

CITY           SKY/WX    TMP DP  RH WIND       PRES   REMARKS
BIG PINEY      FAIR      61  44  53 NW6       30.17R
PINEDALE       FAIR      61  45  55 W3        30.17S
DUBOIS         FAIR      64  36  34 W3        30.16S
LANDER         FAIR      73  49  42 W9        30.03R
RIVERTON       FAIR      76  48  37 NE14      30.01R
CASPER         FAIR      66  54  65 CALM      30.03F
DOUGLAS        FAIR      67  52  58 SE7       30.03R

$$
WYZ021-027>030-104>119-040600-
SOUTHERN WYOMING

CITY           SKY/WX    TMP DP  RH WIND       PRES   REMARKS
EVANSTON       FAIR      71  41  33 W10       30.19R
KEMMERER       FAIR     N/A N/A N/A CALM      30.20S
FORT BRIDGER   CLEAR     72  39  30 W7        30.20S
ROCK SPRINGS   FAIR      73  38  27 NW8       30.13R
DIXON          FAIR      68  44  41 NE6       30.12S
RAWLINS        MOCLDY    68  50  52 NE8       30.12S
SARATOGA       FAIR      70  50  49 S16G24    30.15S
LARAMIE        FAIR      63  50  62 S10       30.21F
CHEYENNE       FAIR      67  54  63 CALM      30.17R
TORRINGTON     FAIR      73  56  54 SE16G26   29.98F
PINE BLUFFS    FAIR      70  55  60 SE8G18    30.11F

$$



USA.gov is the U.S. government's official web portal to all federal, state and local government web resources and services.